This is the latest recevied weather packets stored in our database for station/object DC5DM-13. If no packets are shown the sender has not sent any weather packets the latest 10 day(s).
| Time | Temp. | Humidity | Pressure | Rain* | Wind** | Luminosity | Snow |
|---|---|---|---|---|---|---|---|
| 1777637750 | 21.11° C | 34% | 1026.5 hPa | 0 mm | - | - | - |
| 1777637180 | 21.11° C | 33% | 1026.4 hPa | 0 mm | - | - | - |
| 1777636550 | 21.11° C | 33% | 1026.8 hPa | 0 mm | - | - | - |
| 1777635979 | 20° C | 33% | 1026.7 hPa | 0 mm | - | - | - |
| 1777635349 | 20.56° C | 34% | 1026.9 hPa | 0 mm | - | - | - |
| 1777634779 | 20° C | 36% | 1026.9 hPa | 0 mm | - | - | - |
| 1777634150 | 19.44° C | 35% | 1027.1 hPa | 0 mm | - | - | - |
| 1777633580 | 20° C | 34% | 1027.1 hPa | 0 mm | - | - | - |
| 1777632949 | 19.44° C | 35% | 1027.3 hPa | 0 mm | - | - | - |
| 1777632379 | 19.44° C | 35% | 1027.4 hPa | 0 mm | - | - | - |
| 1777631750 | 18.89° C | 36% | 1027.5 hPa | 0 mm | - | - | - |
| 1777631179 | 18.89° C | 35% | 1027.6 hPa | 0 mm | - | - | - |
| 1777630550 | 18.33° C | 36% | 1027.7 hPa | 0 mm | - | - | - |
| 1777629979 | 18.33° C | 36% | 1027.8 hPa | 0 mm | - | - | - |
| 1777629349 | 18.33° C | 35% | 1027.8 hPa | 0 mm | - | - | - |
| 1777628779 | 17.78° C | 36% | 1027.8 hPa | 0 mm | - | - | - |
| 1777628149 | 17.78° C | 36% | 1027.9 hPa | 0 mm | - | - | - |
| 1777627580 | 17.78° C | 35% | 1027.9 hPa | 0 mm | - | - | - |
| 1777626950 | 17.22° C | 36% | 1028.1 hPa | 0 mm | - | - | - |
| 1777626380 | 16.67° C | 36% | 1028.1 hPa | 0 mm | - | - | - |
| 1777625743 | 16.67° C | 36% | 1028 hPa | 0 mm | - | - | - |
| 1777625173 | 16.67° C | 35% | 1028.2 hPa | 0 mm | - | - | - |
| 1777624543 | 15.56° C | 35% | 1028.1 hPa | 0 mm | - | - | - |
| 1777623973 | 16.11° C | 36% | 1028.2 hPa | 0 mm | - | - | - |
| 1777623344 | 15.56° C | 35% | 1028.2 hPa | 0 mm | - | - | - |
* Rain latest hour (hover to see other rain measurements)
** Current wind speed in m/s (hover to see current wind gust speed)